星链-30439 (STARLINK-30439 )

导读

STARLINK-30439是美国SpaceX公司星链(Starlink)卫星互联网星座中的一员,于2023年9月16日发射升空。星链项目旨在通过大规模低轨卫星组网,为全球尤其是偏远地区提供高速低延迟的宽带互联网服务。作为星链星座的组成部分,该卫星运行于近地轨道,助力构建全球覆盖的卫星通信网络,同时也参与推动了低轨卫星互联网技术的商业化应用进程。

Basic Information
目录编号:
57867
目录名称:
STARLINK-30439
国际标识:
2023-144D
轨道中心:
EARTH
卫星名称:
星链-30439
卫星全名:
星链-30439 (STARLINK-30439 )
卫星状态:
在轨 (已飞行1091 天)
发射日期:
2023-09-16 UTC
国别 :
美国 (US)
星等 :
--
This satellite is enrolled in the Space Conjunction Data Service (SCDS) and the current flight risk assessment level is: No High Risk
Orbit Information
数据来源 国际轨道数据 AOE轨道数据
星历时间 2026-09-11T13:28:13+0800
10小时前
查看轨道信息
2026-09-10T06:00:00+0800
1天前
查看轨道信息
半长轴 6861.155km 6861.232km
偏心率 0.0000884 0.0001506
轨道倾角 43.002° 43.003°
近地点辐角 254.612° 252.114°
升交点赤经 317.336° 324.746°
平近点角 105.463° 88.525°
近地点 482.411km 482.061km
远地点 483.625km 484.129km
周期 94.266分钟 94.268分钟
每日圈数 15.275904 15.275647
Detailed Information
固有亮度:
5
最大亮度:
0.3
卫星平台:
Starlink v2.0 mini
覆盖范围:
全球
运营商:
太空探索技术公司
运营商所在国:
美国
制造商(研发单位):
太空探索技术公司
制造商所在国:
美国
使用方式:
暂无
Satellite Introduction
星链(Starlink)计划是由太空探索技术公司(SpaceX)提出的一个巨型低轨卫星互联网星座项目,计划在2019年至2024年间在太空搭建由约1.2万颗卫星组成的“星链”网络,其中1584颗将部署在地球上空550千米处的近地轨道,并从2020年开始工作。该卫星仍在工作。
2D Orbit Map
3D Orbit Map
Orbit Altitude Analysis Chart
Orbit Inclination Analysis Chart
Orbit Comprehensive Analysis Chart
View Comprehensive Chart
Conjunction Data List
Event ID Objects TCA Miss Dist (km) Collision Risk Probability Collision Risk Index (CRI) Action
CDM_260913-205305-786705-969721
2026-09-13T
20:53:33+0000
0.689 km
远距离
6.7162E-5 中风险 0.72
CDM_260911-205405-695705-786722
2026-09-11T
20:54:36+0000
1.952 km
极远距离
2.887313E-6 低风险 0.44
Miss Distance Evolution Trend with All Objects
Collision Probability Evolution Trend with All Objects